Regional Weather Roundup
Issued by NWS

Home | Current Version | Previous Version | Graphics & Text | Print | Product List | Glossary On
Versions: 1 2 3 4 5 6 7 8 9 10 11 12 13 14 15 16 17 18 19 20 21 22 23 24 25 26 27 28 29 30 31 32 33 34 35 36 37 38 39 40 41 42 43 44 45 46 47 48 49 50
000
ASUS43 KDTX 180110
RWRMI
MICHIGAN HOURLY REGIONAL WEATHER ROUNDUP
NATIONAL WEATHER SERVICE DETROIT/PONTIAC MI
ISSUED BY NATIONAL WEATHER SERVICE GRAND RAPIDS MI
800 PM EST TUE JAN 17 2017

NOTE: "FAIR" INDICATES FEW OR NO CLOUDS BELOW 12,000 FEET WITH NO
SIGNIFICANT WEATHER AND/OR OBSTRUCTION TO VISIBILITY.

MIZ047>049-052>055-059>063-066>070-074>076-081>083-180200-
SOUTHEAST LOWER MICHIGAN

CITY           SKY/WX    TMP DP  RH WIND       PRES   REMARKS
ADRIAN         CLOUDY    39  39 100 W10       29.91R WCI  32
ALMA           CLOUDY    34  34  99 CALM      29.88R FOG
ANN ARBOR      CLOUDY    39  38  96 W9        29.88R WCI  33
BAD AXE        SNOW      33  33 100 W7        29.83S VSB 1/4 WCI  27
DETROIT CITY   CLOUDY    41  39  93 MISG      29.86R
DETROIT        CLOUDY    41  39  93 W9        29.88R
FLINT          CLOUDY    36  35  96 W12       29.87R FOG     WCI  28
GROSSE ILE     CLOUDY    41  39  93 W8        29.86R
HILLSDALE      FOG       36  36 100 W8        29.89R VSB 3/4 WCI  29
HOWELL         CLOUDY    37  36  96 W8        29.87R FOG     WCI  31

CITY           SKY/WX    TMP DP  RH WIND       PRES   REMARKS
JACKSON        CLOUDY    38  36  92 W12       29.89R WCI  30
LANSING        CLOUDY    37  35  92 W13       29.89R FOG     WCI  29
MASON          CLOUDY    37  37 100 W7        29.88R FOG     WCI  31
MONROE         CLOUDY    41  40  96 W9G17     29.88R
MT. CLEMENS    CLOUDY    41  41 100 W10       29.82R
PONTIAC        CLOUDY    38  35  89 W14       29.84R FOG     WCI  30
PORT HOPE        N/A     34  34 100 SW5       29.81R WCI  30
PORT HURON     CLOUDY    39  37  93 W3        29.85R
TRI CITIES     FOG       34  34 100 W7        29.87R VSB 1/4 WCI  28
YPSILANTI      CLOUDY    41  39  93 W13       29.88R
$$
MIZ043>046-050>051-056>058-064>065-071>073-077>080-180200-
SOUTHWEST LOWER MICHIGAN

CITY           SKY/WX    TMP DP  RH WIND       PRES   REMARKS
BATTLE CREEK   CLOUDY    37  37 100 W13       29.91R FOG     WCI  29
BENTON HARBOR  CLOUDY    38  36  92 W10       29.95R FOG     WCI  31
BIG RAPIDS     FOG       33  32  96 CALM      29.86R VSB 3/4
COLDWATER      CLOUDY    38  38 100 W13       29.91S FOG     WCI  30
HOLLAND        CLOUDY    37  36  96 W10       29.91R FOG     WCI  30
GRAND RAPIDS   DRIZZLE   37  35  92 W10       29.89R FOG     WCI  30
KALAMAZOO      FOG       38  35  89 W12       29.92R VSB 1   WCI  30
MARSHALL       CLOUDY    37  37  98 W10       29.90R FOG     WCI  30
MOUNT PLEASANT CLOUDY    34  34  99 W3        29.87R FOG
MUSKEGON       DRIZZLE   37  36  96 W9        29.90R FOG     WCI  30
STURGIS        CLOUDY    37  37 100 W10       29.92R FOG     WCI  30
$$
MIZ016>042-180200-
NORTHERN LOWER MICHIGAN

CITY           SKY/WX    TMP DP  RH WIND       PRES   REMARKS
ALPENA         CLOUDY    34  33  96 N6        29.86S FOG     WCI  29
BEAVER ISLAND  CLOUDY    32  32 100 NE6       29.89F FOG     WCI  26
BELLAIRE       CLOUDY    34  33  96 CALM      29.87F
CADILLAC       CLOUDY    34  33  96 CALM      29.84R FOG
CHARLEVOIX     CLOUDY    32  32 100 E6        29.91S WCI  27
GAYLORD        FOG       34  31  88 N3        29.84S VSB 1/2
HOUGHTON LAKE  CLOUDY    33  32  96 NW3       29.85R
MANISTEE       FOG       34  33  96 CALM      29.87R VSB 1/2
OSCODA         FOG       35  35  97 N5        29.83R VSB 1   WCI  31
PELLSTON       CLOUDY    32  29  88 E3        29.89F FOG
TRAVERSE CITY  CLOUDY    36  34  92 E3        29.86S FOG
LUDINGTON      LGT RAIN  34  34 100 CALM      29.88R VSB 1/4
$$
MIZ007>008-015-180200-
EASTERN UPPER MICHIGAN

CITY           SKY/WX    TMP DP  RH WIND       PRES   REMARKS
KINROSS        CLOUDY    32  28  85 CALM      29.89F
MACKINAC ISLAN CLOUDY    32  32 100 NE7       29.88S WCI  26
NEWBERRY       CLOUDY    31  28  88 CALM      29.89F
S. S. MARIE    CLOUDY    35  26  69 CALM      29.89S
$$
MIZ004>006-011>014-085-180200-
CENTRAL UPPER MICHIGAN

CITY           SKY/WX    TMP DP  RH WIND       PRES   REMARKS
MANISTIQUE     CLOUDY    32  32  99 NE3       29.89F
ESCANABA       CLOUDY    34  33  96 NW3       29.91F FOG
SAWYER-GWINN   CLEAR     27  25  93 NW3       29.89S FOG
$$
MIZ001>003-009>011-084-180200-
WESTERN UPPER MICHIGAN

CITY           SKY/WX    TMP DP  RH WIND       PRES   REMARKS
IRON MOUNTAIN  CLEAR     32  28  85 CALM      29.88S
HOUGHTON       CLEAR     24  21  88 NW6       29.87F WCI  17
COPPER HARBOR    N/A     28  26  92 CALM      29.89F
IRONWOOD       CLEAR     20  18  92 CALM      29.90F
$$

ABBREVIATIONS USED IN REMARKS
   TC - TEMPERATURE IN CELSIUS
  WCI - WIND CHILL INDEX
   HX - HEAT INDEX
  VSB - VISIBILITY





USA.gov is the U.S. government's official web portal to all federal, state and local government web resources and services.